User: anonymous   Login
Location: Équennes
(49.7375°N, 1.9622°E)
Time: 12:55:54
(UTC+00:00)
Language:

NOSS 3-3 (A) - Orbit

View from above orbital plane
View from above orbital plane
View from above satellite
View from above satellite

Ground track
Ground track

The orbit data is extracted from the following two-line orbital elements,

1 28537U 05004A   23142.16722996 0.00000000  00000-0  00000-0 0    01
2 28537  63.4106  60.8588 0457777   0.4079 359.6262 13.40871753    01
Epoch (UTC): 22 May 2023 04:00:48
Eccentricity: 0.0457777
inclination: 63.4106°
perigee height: 763 km
apogee height: 1448 km
right ascension of ascending node: 60.8588°
argument of perigee: 0.4079°
revolutions per day: 13.40871753
mean anomaly at epoch: 359.6262°
orbit number at epoch: 0

The dashed part of the orbit path shows where the satellite is in the earth's shadow,  

DLR